This is the latest recevied weather packets stored in our database for station/object WS4FSC-7. If no packets are shown the sender has not sent any weather packets the latest 10 day(s).
| Time | Temp. | Humidity | Pressure | Rain* | Wind** | Luminosity | Snow |
|---|---|---|---|---|---|---|---|
| 1788114230 | 30.56° C | 71% | 1016 hPa | - | - | 608 W/m² | - |
| 1788114050 | 30.56° C | 66% | 1015 hPa | - | - | 908 W/m² | - |
| 1788113513 | 30° C | 71% | 1016 hPa | - | - | 845 W/m² | - |
| 1788113151 | 29.44° C | 72% | 1016 hPa | - | - | 920 W/m² | - |
| 1788112971 | 29.44° C | 71% | 1016 hPa | - | - | 458 W/m² | - |
| 1788112791 | 29.44° C | 72% | 1016 hPa | - | - | 528 W/m² | - |
| 1788111892 | 28.33° C | 77% | 1016 hPa | - | - | 357 W/m² | - |
| 1788111711 | 28.33° C | 74% | 1016 hPa | - | - | 348 W/m² | - |
| 1788111531 | 28.33° C | 75% | 1016 hPa | - | - | 369 W/m² | - |
| 1788110991 | 28.33° C | 77% | 1016 hPa | - | - | 355 W/m² | - |
| 1788110818 | 28.33° C | 78% | 1016 hPa | - | - | 341 W/m² | - |
| 1788110630 | 27.78° C | 78% | 1016 hPa | - | - | 346 W/m² | - |
| 1788110271 | 28.33° C | 81% | 1016 hPa | - | - | 383 W/m² | - |
| 1788109731 | 27.78° C | 85% | 1016 hPa | - | - | 411 W/m² | - |
| 1788109193 | 27.22° C | 87% | 1016 hPa | - | - | 387 W/m² | - |
| 1788109012 | 27.22° C | 88% | 1016 hPa | - | - | 381 W/m² | - |
| 1788108831 | 27.22° C | 88% | 1016 hPa | - | - | 375 W/m² | - |
| 1788107931 | 26.67° C | 87% | 1016 hPa | - | - | 308 W/m² | - |
| 1788107751 | 26.67° C | 87% | 1016 hPa | - | - | 295 W/m² | - |
| 1788107390 | 26.67° C | 89% | 1016 hPa | - | - | 252 W/m² | - |
| 1788107210 | 26.67° C | 89% | 1016 hPa | - | - | 280 W/m² | - |
| 1788106311 | 26.11° C | 89% | 1016 hPa | - | - | 245 W/m² | - |
| 1788106131 | 26.11° C | 90% | 1017 hPa | - | - | 223 W/m² | - |
| 1788105592 | 25.56° C | 92% | 1017 hPa | - | - | 142 W/m² | - |
| 1788105232 | 25.56° C | 92% | 1017 hPa | - | - | 108 W/m² | - |
* Rain since midnight (hover to see other rain measurements)
** Current wind speed in m/s (hover to see current wind gust speed)